This is the latest recevied weather packets stored in our database for station/object K5UTC. If no packets are shown the sender has not sent any weather packets the latest 1 day(s).
| Time | Temp. | Humidity | Pressure | Rain* | Wind** | Luminosity | Snow |
|---|---|---|---|---|---|---|---|
| 1778016346 | 25.56° C | 56% | 1010 hPa | 0 mm | 0 m/s | 161 W/m² | - |
| 1778016044 | 25° C | 54% | 1010.1 hPa | 0 mm | 0.45 m/s, 157° | 246 W/m² | - |
| 1778015740 | 24.44° C | 58% | 1010.1 hPa | 0 mm | 0 m/s | 392 W/m² | - |
| 1778015437 | 23.89° C | 57% | 1010.1 hPa | 0 mm | 0 m/s | 206 W/m² | - |
| 1778015133 | 23.33° C | 59% | 1010 hPa | 0 mm | 0 m/s | 190 W/m² | - |
| 1778014831 | 23.33° C | 59% | 1010.2 hPa | 0 mm | 0 m/s | 127 W/m² | - |
| 1778014529 | 23.33° C | 61% | 1009.9 hPa | 0 mm | 0 m/s | 189 W/m² | - |
| 1778014226 | 22.78° C | 61% | 1009.7 hPa | 0 mm | 0.89 m/s, 261° | 233 W/m² | - |
| 1778013924 | 22.22° C | 62% | 1009.7 hPa | 0 mm | 0 m/s | 216 W/m² | - |
| 1778013621 | 21.67° C | 63% | 1009.2 hPa | 0 mm | 0.45 m/s, 160° | 152 W/m² | - |
| 1778013317 | 21.67° C | 64% | 1009 hPa | 0 mm | 0.45 m/s, 179° | 116 W/m² | - |
| 1778013014 | 21.67° C | 65% | 1009.2 hPa | 0 mm | 0.45 m/s, 146° | 85 W/m² | - |
| 1778012710 | 22.22° C | 65% | 1009.9 hPa | 0 mm | 0 m/s | 81 W/m² | - |
| 1778012406 | 22.78° C | 59% | 1009.9 hPa | 0 mm | 0.45 m/s, 186° | 71 W/m² | - |
| 1778012103 | 22.78° C | 65% | 1010.2 hPa | 0 mm | 0 m/s | 91 W/m² | - |
| 1778011801 | 23.33° C | 62% | 1010.9 hPa | 0 mm | 0 m/s | 101 W/m² | - |
| 1778011499 | 23.33° C | 58% | 1011 hPa | 0 mm | 0 m/s | 89 W/m² | - |
| 1778011194 | 23.89° C | 59% | 1011.1 hPa | 0 mm | 0 m/s | 93 W/m² | - |
| 1778010891 | 23.89° C | 59% | 1010.9 hPa | 0 mm | 0 m/s | 110 W/m² | - |
| 1778010589 | 23.89° C | 59% | 1011 hPa | 0 mm | 0.89 m/s, 155° | 106 W/m² | - |
| 1778010286 | 24.44° C | 52% | 1011 hPa | 0 mm | 0 m/s | 123 W/m² | - |
| 1778009986 | 24.44° C | 52% | 1010.7 hPa | 0 mm | 0 m/s | 152 W/m² | - |
| 1778009684 | 24.44° C | 52% | 1010.5 hPa | 0 mm | 0 m/s | 173 W/m² | - |
| 1778009381 | 24.44° C | 50% | 1011 hPa | 0 mm | 0.89 m/s, 134° | 167 W/m² | - |
| 1778009079 | 25° C | 53% | 1011.6 hPa | 0 mm | 0 m/s | 170 W/m² | - |
* Rain latest hour (hover to see other rain measurements)
** Current wind speed in m/s (hover to see current wind gust speed)